| time (UTC) | temp F | wind direction | speed knots | gust knots | rain 1hr in | rain 24hr in | rain mn in | humidity % | barometer mb |
| 20260905223427 | 59 | 279 | 0.9 | 4.3 | 0.00 | 0.11 | 0.00 | 66 | 1024.8 |
| 20260905222926 | 59 | 272 | 0.9 | 4.3 | 0.00 | 0.11 | 0.00 | 66 | 1024.8 |
| 20260905222427 | 59 | 295 | 1.7 | 3.5 | 0.00 | 0.11 | 0.00 | 66 | 1024.7 |
| 20260905221925 | 59 | 296 | 1.7 | 4.3 | 0.00 | 0.11 | 0.00 | 66 | 1024.7 |
| 20260905221419 | 59 | 311 | 1.7 | 4.3 | 0.00 | 0.11 | 0.00 | 66 | 1024.7 |
| 20260905220910 | 60 | 283 | 1.7 | 3.5 | 0.00 | 0.11 | 0.00 | 65 | 1024.6 |
| 20260905220411 | 60 | 294 | 0.9 | 3.5 | 0.00 | 0.11 | 0.00 | 65 | 1024.6 |
| 20260905215910 | 60 | 267 | 0.9 | 4.3 | 0.00 | 0.11 | 0.11 | 65 | 1024.6 |
| 20260905215410 | 60 | 290 | 0.9 | 4.3 | 0.00 | 0.11 | 0.11 | 64 | 1024.5 |
| 20260905214907 | 61 | 274 | 1.7 | 3.5 | 0.00 | 0.11 | 0.11 | 64 | 1024.4 |
| 20260905214407 | 61 | 277 | 1.7 | 5.2 | 0.00 | 0.11 | 0.11 | 63 | 1024.4 |
| 20260905213903 | 61 | 263 | 1.7 | 5.2 | 0.00 | 0.11 | 0.11 | 63 | 1024.3 |
| 20260905213404 | 61 | 294 | 2.6 | 8.7 | 0.00 | 0.11 | 0.11 | 63 | 1024.2 |
| 20260905212904 | 61 | 301 | 4.3 | 9.6 | 0.00 | 0.11 | 0.11 | 63 | 1024.2 |
| 20260905212355 | 61 | 314 | 4.3 | 9.6 | 0.00 | 0.11 | 0.11 | 63 | 1024.2 |
| 20260905211856 | 61 | 298 | 3.5 | 7.0 | 0.00 | 0.11 | 0.11 | 64 | 1024.2 |
| 20260905211356 | 61 | 302 | 3.5 | 7.0 | 0.00 | 0.11 | 0.11 | 65 | 1024.2 |
| 20260905210856 | 61 | 314 | 3.5 | 7.0 | 0.00 | 0.11 | 0.11 | 65 | 1024.1 |
| 20260905210355 | 61 | 289 | 2.6 | 6.1 | 0.00 | 0.11 | 0.11 | 66 | 1024.0 |
| 20260905205854 | 61 | 297 | 2.6 | 6.1 | 0.00 | 0.11 | 0.11 | 67 | 1023.9 |
| 20260905205355 | 61 | 269 | 3.5 | 7.8 | 0.00 | 0.11 | 0.11 | 67 | 1023.9 |
| 20260905204853 | 61 | 315 | 3.5 | 7.8 | 0.00 | 0.11 | 0.11 | 67 | 1023.9 |
| 20260905204354 | 61 | 308 | 3.5 | 7.0 | 0.00 | 0.11 | 0.11 | 67 | 1023.9 |
| 20260905203850 | 61 | 313 | 2.6 | 7.0 | 0.00 | 0.11 | 0.11 | 67 | 1023.9 |
| 20260905203340 | 61 | 296 | 1.7 | 4.3 | 0.00 | 0.11 | 0.11 | 67 | 1023.7 |
| 20260905202837 | 62 | 281 | 2.6 | 5.2 | 0.00 | 0.11 | 0.11 | 67 | 1023.7 |
| 20260905202336 | 62 | 289 | 2.6 | 6.1 | 0.00 | 0.11 | 0.11 | 67 | 1023.5 |
| 20260905201837 | 62 | 312 | 1.7 | 6.1 | 0.00 | 0.11 | 0.11 | 67 | 1023.4 |
| 20260905201336 | 62 | 308 | 1.7 | 6.1 | 0.00 | 0.11 | 0.11 | 67 | 1023.4 |
| 20260905200840 | 62 | 276 | 1.7 | 5.2 | 0.00 | 0.11 | 0.11 | 67 | 1023.4 |
| 20260905200337 | 62 | 298 | 1.7 | 5.2 | 0.00 | 0.11 | 0.11 | 67 | 1023.3 |
| 20260905195832 | 62 | 263 | 1.7 | 6.1 | 0.00 | 0.11 | 0.11 | 67 | 1023.2 |
| 20260905195335 | 62 | 273 | 2.6 | 6.1 | 0.00 | 0.11 | 0.11 | 67 | 1023.2 |
| 20260905194833 | 62 | 260 | 2.6 | 6.1 | 0.00 | 0.11 | 0.11 | 66 | 1023.2 |
| 20260905194331 | 63 | 253 | 2.6 | 6.1 | 0.00 | 0.11 | 0.11 | 66 | 1023.0 |
| 20260905193833 | 63 | 243 | 2.6 | 5.2 | 0.00 | 0.11 | 0.11 | 66 | 1023.0 |
| 20260905193331 | 63 | 247 | 2.6 | 5.2 | 0.00 | 0.11 | 0.11 | 65 | 1022.9 |
| 20260905192832 | 63 | 254 | 1.7 | 5.2 | 0.00 | 0.11 | 0.11 | 65 | 1022.8 |
| 20260905192331 | 63 | 250 | 2.6 | 6.1 | 0.00 | 0.11 | 0.11 | 65 | 1022.7 |
| 20260905191831 | 64 | 246 | 2.6 | 6.1 | 0.00 | 0.11 | 0.11 | 64 | 1022.7 |
| 20260905191331 | 64 | 255 | 2.6 | 6.1 | 0.00 | 0.11 | 0.11 | 64 | 1022.6 |
| 20260905190831 | 64 | 286 | 2.6 | 6.1 | 0.00 | 0.11 | 0.11 | 63 | 1022.6 |
| 20260905190332 | 64 | 276 | 2.6 | 7.0 | 0.00 | 0.11 | 0.11 | 63 | 1022.5 |
| 20260905185830 | 64 | 297 | 3.5 | 7.0 | 0.00 | 0.11 | 0.11 | 63 | 1022.5 |
| 20260905185330 | 65 | 286 | 3.5 | 8.7 | 0.00 | 0.11 | 0.11 | 62 | 1022.4 |
| 20260905184831 | 65 | 263 | 3.5 | 9.6 | 0.00 | 0.11 | 0.11 | 62 | 1022.3 |
| 20260905184333 | 65 | 294 | 3.5 | 9.6 | 0.00 | 0.11 | 0.11 | 62 | 1022.3 |
| 20260905183833 | 65 | 261 | 4.3 | 8.7 | 0.00 | 0.11 | 0.11 | 61 | 1022.3 |
| 20260905183330 | 65 | 224 | 4.3 | 8.7 | 0.00 | 0.11 | 0.11 | 61 | 1022.3 |
| 20260905182831 | 65 | 329 | 3.5 | 8.7 | 0.00 | 0.11 | 0.11 | 60 | 1022.2 |
| 20260905182331 | 66 | 271 | 3.5 | 8.7 | 0.00 | 0.11 | 0.11 | 60 | 1022.0 |
| 20260905181830 | 66 | 318 | 3.5 | 9.6 | 0.00 | 0.11 | 0.11 | 60 | 1022.0 |
| 20260905181329 | 66 | 236 | 4.3 | 9.6 | 0.00 | 0.11 | 0.11 | 59 | 1021.8 |
| 20260905180827 | 66 | 259 | 5.2 | 12.2 | 0.00 | 0.11 | 0.11 | 58 | 1021.8 |
| 20260905180327 | 66 | 306 | 5.2 | 12.2 | 0.00 | 0.11 | 0.11 | 58 | 1021.6 |
| 20260905175826 | 67 | 246 | 5.2 | 12.2 | 0.00 | 0.11 | 0.11 | 58 | 1021.5 |
| 20260905175323 | 67 | 229 | 4.3 | 10.4 | 0.00 | 0.11 | 0.11 | 57 | 1021.5 |
| 20260905174823 | 67 | 281 | 4.3 | 13.0 | 0.00 | 0.11 | 0.11 | 56 | 1021.4 |
| 20260905174322 | 67 | 286 | 5.2 | 13.0 | 0.00 | 0.11 | 0.11 | 55 | 1021.4 |
| 20260905173821 | 67 | 257 | 5.2 | 10.4 | 0.00 | 0.11 | 0.11 | 55 | 1021.3 |
| 20260905173327 | 68 | 275 | 5.2 | 10.4 | 0.00 | 0.11 | 0.11 | 55 | 1021.3 |
| 20260905172825 | 68 | 288 | 6.1 | 13.0 | 0.00 | 0.11 | 0.11 | 54 | 1021.2 |
| 20260905172319 | 68 | 276 | 6.1 | 13.9 | 0.00 | 0.11 | 0.11 | 54 | 1021.2 |
| 20260905171821 | 68 | 254 | 7.0 | 13.9 | 0.00 | 0.11 | 0.11 | 53 | 1021.2 |
| 20260905171312 | 69 | 244 | 6.1 | 14.8 | 0.00 | 0.11 | 0.11 | 53 | 1021.2 |
| 20260905170806 | 69 | 240 | 6.1 | 16.5 | 0.00 | 0.11 | 0.11 | 53 | 1021.1 |
| 20260905170303 | 69 | 277 | 6.1 | 12.2 | 0.00 | 0.11 | 0.11 | 53 | 1021.1 |
| 20260905165757 | 69 | 223 | 6.1 | 14.8 | 0.00 | 0.11 | 0.11 | 53 | 1021.1 |
| 20260905165253 | 69 | 270 | 6.1 | 14.8 | 0.00 | 0.11 | 0.11 | 53 | 1021.1 |
| 20260905164751 | 69 | 246 | 6.1 | 14.8 | 0.00 | 0.11 | 0.11 | 54 | 1021.1 |
| 20260905164251 | 69 | 271 | 5.2 | 14.8 | 0.00 | 0.11 | 0.11 | 54 | 1021.0 |
| 20260905163749 | 69 | 258 | 6.1 | 15.6 | 0.00 | 0.11 | 0.11 | 54 | 1021.0 |
| 20260905163248 | 69 | 263 | 7.0 | 15.6 | 0.00 | 0.11 | 0.11 | 54 | 1021.0 |
| 20260905162745 | 69 | 265 | 7.0 | 17.4 | 0.00 | 0.11 | 0.11 | 53 | 1021.1 |
| 20260905162244 | 70 | 261 | 6.1 | 17.4 | 0.00 | 0.11 | 0.11 | 52 | 1021.0 |
| 20260905161744 | 70 | 290 | 5.2 | 11.3 | 0.00 | 0.11 | 0.11 | 52 | 1021.0 |
| 20260905161242 | 70 | 303 | 6.1 | 14.8 | 0.00 | 0.11 | 0.11 | 52 | 1020.9 |
| 20260905160741 | 71 | 313 | 6.1 | 14.8 | 0.00 | 0.11 | 0.11 | 52 | 1020.8 |
| 20260905160237 | 71 | 287 | 6.1 | 13.0 | 0.00 | 0.11 | 0.11 | 51 | 1020.8 |
| 20260905155735 | 71 | 220 | 7.0 | 16.5 | 0.00 | 0.11 | 0.11 | 51 | 1020.8 |
| 20260905155234 | 71 | 313 | 7.8 | 17.4 | 0.00 | 0.11 | 0.11 | 51 | 1020.8 |
| 20260905154733 | 71 | 291 | 8.7 | 17.4 | 0.00 | 0.11 | 0.11 | 50 | 1020.7 |
| 20260905154234 | 71 | 40 | 7.0 | 15.6 | 0.00 | 0.11 | 0.11 | 50 | 1020.8 |
| 20260905153733 | 71 | 315 | 7.0 | 20.0 | 0.00 | 0.11 | 0.11 | 50 | 1020.7 |
| 20260905153235 | 71 | 281 | 8.7 | 20.0 | 0.00 | 0.11 | 0.11 | 49 | 1020.8 |
| 20260905152732 | 71 | 298 | 7.0 | 16.5 | 0.00 | 0.11 | 0.11 | 50 | 1020.7 |
| 20260905152225 | 71 | 300 | 6.1 | 16.5 | 0.00 | 0.11 | 0.11 | 51 | 1020.8 |
| 20260905151726 | 71 | 281 | 7.8 | 14.8 | 0.00 | 0.11 | 0.11 | 51 | 1020.7 |
| 20260905151218 | 71 | 251 | 7.0 | 15.6 | 0.00 | 0.11 | 0.11 | 49 | 1020.8 |
| 20260905150711 | 72 | 271 | 7.0 | 15.6 | 0.00 | 0.11 | 0.11 | 49 | 1020.6 |
| 20260905150208 | 72 | 283 | 7.0 | 14.8 | 0.00 | 0.11 | 0.11 | 50 | 1020.7 |
| 20260905145707 | 72 | 276 | 7.8 | 13.9 | 0.00 | 0.11 | 0.11 | 48 | 1020.7 |
| 20260905145207 | 72 | 280 | 7.0 | 13.9 | 0.00 | 0.11 | 0.11 | 49 | 1020.5 |
| 20260905144704 | 72 | 271 | 6.1 | 19.1 | 0.00 | 0.11 | 0.11 | 51 | 1020.6 |
| 20260905144205 | 72 | 272 | 6.1 | 19.1 | 0.00 | 0.11 | 0.11 | 52 | 1020.6 |
| 20260905143704 | 71 | 271 | 7.8 | 14.8 | 0.00 | 0.11 | 0.11 | 53 | 1020.7 |
| 20260905143203 | 71 | 293 | 7.8 | 16.5 | 0.00 | 0.11 | 0.11 | 51 | 1020.7 |
| 20260905142702 | 71 | 317 | 8.7 | 16.5 | 0.00 | 0.11 | 0.11 | 52 | 1020.8 |
| 20260905142203 | 71 | 286 | 9.6 | 21.7 | 0.00 | 0.11 | 0.11 | 52 | 1020.8 |
| 20260905141704 | 71 | 247 | 8.7 | 21.7 | 0.00 | 0.11 | 0.11 | 52 | 1020.9 |
| 20260905141205 | 71 | 292 | 7.0 | 15.6 | 0.00 | 0.11 | 0.11 | 54 | 1020.9 |
| 20260905140701 | 70 | 293 | 6.1 | 14.8 | 0.00 | 0.11 | 0.11 | 56 | 1020.9 |
| 20260905140201 | 69 | 273 | 7.0 | 14.8 | 0.00 | 0.11 | 0.11 | 58 | 1020.8 |
| 20260905135701 | 69 | 296 | 6.1 | 13.0 | 0.00 | 0.11 | 0.11 | 61 | 1020.8 |
| 20260905135159 | 68 | 326 | 5.2 | 11.3 | 0.00 | 0.11 | 0.11 | 59 | 1020.9 |
| 20260905134652 | 69 | 317 | 5.2 | 14.8 | 0.00 | 0.11 | 0.11 | 58 | 1020.9 |
| 20260905134149 | 69 | 232 | 5.2 | 14.8 | 0.00 | 0.11 | 0.11 | 59 | 1021.0 |
| 20260905133644 | 69 | 305 | 6.1 | 11.3 | 0.00 | 0.11 | 0.11 | 58 | 1021.0 |
| 20260905133143 | 69 | 319 | 5.2 | 10.4 | 0.00 | 0.11 | 0.11 | 58 | 1020.9 |
| 20260905132643 | 69 | 319 | 6.1 | 12.2 | 0.00 | 0.11 | 0.11 | 59 | 1021.0 |
| 20260905132142 | 70 | 276 | 7.8 | 12.2 | 0.00 | 0.11 | 0.11 | 58 | 1021.0 |
| 20260905131642 | 70 | 267 | 7.0 | 13.9 | 0.00 | 0.11 | 0.11 | 59 | 1021.0 |
| 20260905131142 | 70 | 323 | 7.0 | 13.9 | 0.00 | 0.11 | 0.11 | 57 | 1020.9 |
| 20260905130643 | 71 | 246 | 7.0 | 13.9 | 0.00 | 0.11 | 0.11 | 56 | 1021.1 |
| 20260905130155 | 72 | 250 | 7.0 | 18.2 | 0.00 | 0.11 | 0.11 | 55 | 1021.1 |
| 20260905125644 | 72 | 275 | 7.8 | 18.2 | 0.00 | 0.11 | 0.11 | 54 | 1021.2 |
| 20260905125141 | 72 | 231 | 8.7 | 18.2 | 0.00 | 0.11 | 0.11 | 55 | 1021.0 |
| 20260905124643 | 72 | 0 | 8.7 | 20.9 | 0.00 | 0.11 | 0.11 | 55 | 1021.0 |
| 20260905124143 | 72 | 263 | 7.0 | 20.9 | 0.00 | 0.11 | 0.11 | 55 | 1021.2 |
| 20260905123642 | 72 | 307 | 7.0 | 16.5 | 0.00 | 0.11 | 0.11 | 55 | 1021.2 |
| 20260905123142 | 72 | 279 | 8.7 | 18.2 | 0.00 | 0.11 | 0.11 | 56 | 1021.2 |
| 20260905122642 | 72 | 311 | 7.8 | 18.2 | 0.00 | 0.11 | 0.11 | 56 | 1021.2 |
| 20260905122142 | 72 | 336 | 7.8 | 20.0 | 0.00 | 0.11 | 0.11 | 57 | 1021.1 |
| 20260905121640 | 72 | 202 | 8.7 | 20.0 | 0.00 | 0.11 | 0.11 | 57 | 1021.1 |
| 20260905121134 | 72 | 277 | 9.6 | 20.9 | 0.00 | 0.11 | 0.11 | 56 | 1021.1 |
| 20260905120628 | 71 | 257 | 8.7 | 20.9 | 0.00 | 0.11 | 0.11 | 57 | 1021.2 |
| 20260905120121 | 71 | 289 | 7.0 | 16.5 | 0.00 | 0.11 | 0.11 | 61 | 1021.1 |
| 20260905115621 | 70 | 209 | 7.0 | 15.6 | 0.00 | 0.11 | 0.11 | 62 | 1021.1 |
| 20260905115112 | 70 | 350 | 7.8 | 15.6 | 0.00 | 0.11 | 0.11 | 62 | 1021.1 |
| 20260905114606 | 69 | 256 | 7.8 | 15.6 | 0.00 | 0.11 | 0.11 | 64 | 1021.2 |
| 20260905114107 | 69 | 271 | 7.8 | 14.8 | 0.00 | 0.11 | 0.11 | 65 | 1021.1 |
| 20260905113609 | 68 | 265 | 7.0 | 14.8 | 0.00 | 0.11 | 0.11 | 66 | 1021.1 |
| 20260905113106 | 68 | 289 | 7.0 | 12.2 | 0.00 | 0.11 | 0.11 | 66 | 1021.3 |
| 20260905112606 | 68 | 302 | 7.0 | 12.2 | 0.00 | 0.11 | 0.11 | 64 | 1021.3 |
| 20260905112107 | 69 | 282 | 7.0 | 13.0 | 0.00 | 0.11 | 0.11 | 64 | 1021.3 |
| 20260905111606 | 69 | 246 | 7.8 | 15.6 | 0.00 | 0.11 | 0.11 | 64 | 1021.3 |
| 20260905111108 | 69 | 288 | 7.8 | 16.5 | 0.00 | 0.11 | 0.11 | 66 | 1021.3 |
| 20260905110605 | 68 | 239 | 7.0 | 16.5 | 0.00 | 0.11 | 0.11 | 64 | 1021.4 |
| 20260905110108 | 69 | 205 | 6.1 | 13.9 | 0.00 | 0.11 | 0.11 | 65 | 1021.3 |
| 20260905105605 | 69 | 283 | 6.1 | 16.5 | 0.00 | 0.11 | 0.11 | 62 | 1021.3 |
| 20260905105106 | 69 | 274 | 5.2 | 16.5 | 0.00 | 0.11 | 0.11 | 63 | 1021.4 |
| 20260905104603 | 68 | 130 | 5.2 | 11.3 | 0.00 | 0.11 | 0.11 | 66 | 1021.4 |
| 20260905104104 | 68 | 280 | 5.2 | 11.3 | 0.00 | 0.11 | 0.11 | 64 | 1021.3 |
| 20260905103602 | 69 | 297 | 6.1 | 11.3 | 0.00 | 0.11 | 0.11 | 66 | 1021.4 |
| 20260905103104 | 68 | 314 | 7.0 | 13.0 | 0.00 | 0.11 | 0.11 | 66 | 1021.4 |
| 20260905102558 | 68 | 296 | 7.0 | 13.0 | 0.00 | 0.11 | 0.11 | 68 | 1021.3 |
| 20260905102057 | 67 | 275 | 7.0 | 13.0 | 0.00 | 0.11 | 0.11 | 68 | 1021.3 |
| 20260905101549 | 67 | 282 | 5.2 | 13.0 | 0.00 | 0.11 | 0.11 | 66 | 1021.3 |
| 20260905101045 | 67 | 283 | 5.2 | 13.0 | 0.00 | 0.11 | 0.11 | 67 | 1021.4 |
| 20260905100532 | 67 | 257 | 4.3 | 11.3 | 0.00 | 0.11 | 0.11 | 69 | 1021.4 |
| 20260905100027 | 67 | 273 | 5.2 | 13.0 | 0.00 | 0.11 | 0.11 | 70 | 1021.4 |
| 20260905095522 | 67 | 260 | 7.0 | 13.9 | 0.00 | 0.11 | 0.11 | 70 | 1021.5 |
| 20260905095015 | 66 | 244 | 7.8 | 15.6 | 0.00 | 0.11 | 0.11 | 70 | 1021.4 |
| 20260905094510 | 66 | 290 | 7.8 | 16.5 | 0.00 | 0.11 | 0.11 | 71 | 1021.4 |
| 20260905094002 | 66 | 330 | 8.7 | 16.5 | 0.00 | 0.11 | 0.11 | 70 | 1021.5 |
| 20260905093502 | 66 | 278 | 7.8 | 14.8 | 0.00 | 0.11 | 0.11 | 70 | 1021.5 |
| 20260905092958 | 66 | 269 | 7.0 | 14.8 | 0.00 | 0.11 | 0.11 | 72 | 1021.5 |
| 20260905092457 | 65 | 189 | 7.0 | 13.9 | 0.00 | 0.11 | 0.11 | 75 | 1021.6 |
| 20260905091957 | 65 | 253 | 6.1 | 13.9 | 0.00 | 0.11 | 0.11 | 77 | 1021.5 |
| 20260905091453 | 65 | 288 | 7.0 | 13.9 | 0.00 | 0.11 | 0.11 | 77 | 1021.6 |
| 20260905090951 | 65 | 247 | 6.1 | 12.2 | 0.00 | 0.11 | 0.11 | 77 | 1021.6 |
| 20260905090451 | 64 | 267 | 6.1 | 13.0 | 0.00 | 0.11 | 0.11 | 80 | 1021.6 |
| 20260905085951 | 64 | 232 | 4.3 | 13.0 | 0.00 | 0.11 | 0.11 | 80 | 1021.6 |
| 20260905085450 | 63 | 248 | 3.5 | 8.7 | 0.00 | 0.11 | 0.11 | 85 | 1021.5 |
| 20260905084952 | 62 | 224 | 4.3 | 7.8 | 0.00 | 0.11 | 0.11 | 86 | 1021.3 |
| 20260905084445 | 61 | 237 | 3.5 | 8.7 | 0.00 | 0.11 | 0.11 | 85 | 1021.5 |
| 20260905083945 | 61 | 216 | 3.5 | 8.7 | 0.00 | 0.11 | 0.11 | 85 | 1021.4 |
| 20260905083441 | 60 | 257 | 3.5 | 8.7 | 0.00 | 0.11 | 0.11 | 84 | 1021.3 |
| 20260905082941 | 60 | 240 | 3.5 | 8.7 | 0.00 | 0.11 | 0.11 | 85 | 1021.3 |
| 20260905082441 | 60 | 249 | 3.5 | 8.7 | 0.00 | 0.11 | 0.11 | 85 | 1021.2 |
| 20260905081950 | 60 | 277 | 3.5 | 8.7 | 0.00 | 0.11 | 0.11 | 88 | 1021.1 |
| 20260905081440 | 59 | 257 | 3.5 | 7.0 | 0.01 | 0.11 | 0.11 | 88 | 1021.1 |
| 20260905080940 | 59 | 237 | 4.3 | 7.0 | 0.01 | 0.11 | 0.11 | 88 | 1021.1 |
| 20260905080439 | 59 | 248 | 4.3 | 7.8 | 0.01 | 0.11 | 0.11 | 89 | 1021.2 |
| 20260905075934 | 59 | 257 | 4.3 | 7.8 | 0.01 | 0.11 | 0.11 | 89 | 1021.1 |
| 20260905075424 | 58 | 223 | 5.2 | 8.7 | 0.01 | 0.11 | 0.11 | 90 | 1021.1 |
| 20260905074921 | 58 | 246 | 5.2 | 10.4 | 0.01 | 0.11 | 0.11 | 91 | 1021.1 |
| 20260905074418 | 58 | 244 | 4.3 | 10.4 | 0.01 | 0.11 | 0.11 | 91 | 1021.0 |
| 20260905073908 | 57 | 271 | 4.3 | 9.6 | 0.02 | 0.11 | 0.11 | 90 | 1021.0 |
| 20260905073403 | 57 | 203 | 4.3 | 8.7 | 0.02 | 0.11 | 0.11 | 90 | 1020.9 |
| 20260905072854 | 57 | 229 | 3.5 | 8.7 | 0.02 | 0.11 | 0.11 | 90 | 1020.7 |
| 20260905072353 | 57 | 247 | 3.5 | 7.8 | 0.02 | 0.11 | 0.11 | 90 | 1020.5 |
| 20260905071846 | 57 | 229 | 3.5 | 7.8 | 0.02 | 0.11 | 0.11 | 90 | 1020.2 |
| 20260905071342 | 57 | 230 | 3.5 | 7.8 | 0.02 | 0.10 | 0.10 | 90 | 1020.2 |
| 20260905070840 | 57 | 232 | 3.5 | 7.0 | 0.02 | 0.10 | 0.10 | 89 | 1020.0 |
| 20260905070340 | 57 | 241 | 2.6 | 6.1 | 0.02 | 0.10 | 0.10 | 89 | 1019.8 |
| 20260905065838 | 57 | 240 | 2.6 | 7.8 | 0.02 | 0.10 | 0.10 | 89 | 1019.6 |
| 20260905065339 | 57 | 212 | 3.5 | 8.7 | 0.02 | 0.10 | 0.10 | 89 | 1019.9 |
| 20260905064839 | 57 | 246 | 4.3 | 8.7 | 0.03 | 0.10 | 0.10 | 89 | 1020.3 |
| 20260905064339 | 57 | 254 | 4.3 | 7.8 | 0.03 | 0.09 | 0.09 | 90 | 1020.4 |
| 20260905063838 | 57 | 245 | 3.5 | 7.0 | 0.04 | 0.09 | 0.09 | 90 | 1020.3 |
| 20260905063338 | 57 | 211 | 2.6 | 7.0 | 0.04 | 0.09 | 0.09 | 89 | 1019.9 |
| 20260905062836 | 57 | 268 | 2.6 | 7.0 | 0.05 | 0.09 | 0.09 | 89 | 1019.9 |
| 20260905062335 | 57 | 266 | 2.6 | 5.2 | 0.06 | 0.09 | 0.09 | 89 | 1020.2 |
| 20260905061835 | 57 | 285 | 1.7 | 5.2 | 0.06 | 0.09 | 0.09 | 88 | 1020.2 |
| 20260905061334 | 57 | 298 | 1.7 | 5.2 | 0.06 | 0.09 | 0.09 | 88 | 1020.5 |
| 20260905060833 | 57 | 296 | 2.6 | 5.2 | 0.06 | 0.09 | 0.09 | 88 | 1020.6 |
| 20260905060332 | 57 | 288 | 2.6 | 5.2 | 0.06 | 0.09 | 0.09 | 87 | 1020.4 |
| 20260905055833 | 57 | 248 | 2.6 | 8.7 | 0.06 | 0.09 | 0.09 | 87 | 1020.7 |
| 20260905055332 | 57 | 274 | 3.5 | 9.6 | 0.05 | 0.08 | 0.08 | 87 | 1020.7 |
| 20260905054831 | 58 | 285 | 3.5 | 9.6 | 0.04 | 0.07 | 0.07 | 87 | 1021.2 |
| 20260905054324 | 58 | 269 | 3.5 | 7.0 | 0.03 | 0.06 | 0.06 | 87 | 1021.2 |
| 20260905053823 | 58 | 328 | 4.3 | 8.7 | 0.02 | 0.06 | 0.06 | 86 | 1020.9 |
| 20260905053322 | 58 | 302 | 3.5 | 8.7 | 0.02 | 0.06 | 0.05 | 86 | 1020.9 |
| 20260905052822 | 58 | 302 | 3.5 | 7.8 | 0.02 | 0.05 | 0.05 | 86 | 1020.8 |
| 20260905052322 | 58 | 275 | 3.5 | 7.0 | 0.01 | 0.04 | 0.03 | 86 | 1020.8 |
| 20260905051822 | 58 | 291 | 1.7 | 4.3 | 0.00 | 0.03 | 0.03 | 86 | 1020.6 |
| 20260905051323 | 58 | 315 | 0.9 | 4.3 | 0.00 | 0.03 | 0.03 | 86 | 1019.9 |
| 20260905050826 | 58 | 302 | 0.0 | 2.6 | 0.00 | 0.03 | 0.03 | 86 | 1019.9 |
| 20260905050322 | 58 | 302 | 0.0 | 4.3 | 0.02 | 0.03 | 0.03 | 85 | 1020.2 |
| 20260905045824 | 58 | 302 | 0.9 | 4.3 | 0.02 | 0.03 | 0.03 | 85 | 1019.9 |
| 20260905045325 | 58 | 302 | 2.6 | 4.3 | 0.02 | 0.03 | 0.03 | 85 | 1020.2 |
| 20260905044824 | 58 | 329 | 1.7 | 4.3 | 0.03 | 0.03 | 0.03 | 84 | 1019.9 |
| 20260905044322 | 59 | 316 | 1.7 | 3.5 | 0.03 | 0.03 | 0.03 | 84 | 1019.8 |
| 20260905043823 | 59 | 344 | 0.9 | 3.5 | 0.03 | 0.03 | 0.03 | 84 | 1019.4 |
| 20260905043316 | 59 | 349 | 0.9 | 2.6 | 0.03 | 0.03 | 0.03 | 84 | 1019.3 |
| 20260905042812 | 59 | 350 | 0.9 | 3.5 | 0.03 | 0.03 | 0.03 | 83 | 1019.2 |
| 20260905042309 | 59 | 351 | 1.7 | 3.5 | 0.03 | 0.03 | 0.03 | 83 | 1019.4 |
| 20260905041808 | 60 | 327 | 2.6 | 4.3 | 0.03 | 0.03 | 0.03 | 82 | 1019.3 |
| 20260905041308 | 60 | 326 | 2.6 | 4.3 | 0.03 | 0.03 | 0.03 | 81 | 1019.2 |
| 20260905040808 | 60 | 327 | 3.5 | 8.7 | 0.03 | 0.03 | 0.03 | 80 | 1019.3 |
| 20260905040307 | 61 | 306 | 4.3 | 8.7 | 0.02 | 0.02 | 0.01 | 80 | 1019.3 |
| 20260905035805 | 61 | 320 | 2.6 | 5.2 | 0.01 | 0.01 | 0.01 | 79 | 1019.1 |
| 20260905035306 | 61 | 324 | 1.7 | 5.2 | 0.01 | 0.01 | 0.01 | 77 | 1019.0 |
| 20260905034805 | 62 | 313 | 2.6 | 6.1 | 0.00 | 0.00 | 0.00 | 76 | 1018.8 |
| 20260905034306 | 62 | 307 | 3.5 | 7.8 | 0.00 | 0.00 | 0.00 | 75 | 1019.1 |
| 20260905033816 | 62 | 327 | 3.5 | 7.8 | 0.00 | 0.00 | 0.00 | 73 | 1018.9 |
| 20260905033306 | 62 | 324 | 2.6 | 6.1 | 0.00 | 0.00 | 0.00 | 72 | 1018.7 |
| 20260905032804 | 62 | 290 | 2.6 | 5.2 | 0.00 | 0.00 | 0.00 | 71 | 1018.9 |
| 20260905032306 | 63 | 305 | 2.6 | 5.2 | 0.00 | 0.00 | 0.00 | 70 | 1018.4 |
| 20260905031801 | 63 | 336 | 2.6 | 4.3 | 0.00 | 0.00 | 0.00 | 69 | 1017.9 |
| 20260905031302 | 63 | 298 | 2.6 | 4.3 | 0.00 | 0.00 | 0.00 | 69 | 1018.2 |
| 20260905030802 | 63 | 282 | 3.5 | 5.2 | 0.00 | 0.00 | 0.00 | 68 | 1018.0 |
| 20260905030302 | 63 | 305 | 5.2 | 9.6 | 0.00 | 0.00 | 0.00 | 67 | 1018.0 |
| 20260905025802 | 63 | 311 | 6.1 | 11.3 | 0.00 | 0.00 | 0.00 | 66 | 1017.9 |
| 20260905025306 | 64 | 342 | 5.2 | 11.3 | 0.00 | 0.00 | 0.00 | 66 | 1017.8 |
| 20260905024803 | 64 | 336 | 4.3 | 9.6 | 0.00 | 0.00 | 0.00 | 68 | 1018.5 |
| 20260905024303 | 64 | 344 | 3.5 | 9.6 | 0.00 | 0.00 | 0.00 | 68 | 1018.2 |
| 20260905023803 | 64 | 303 | 3.5 | 6.1 | 0.00 | 0.00 | 0.00 | 68 | 1017.7 |
| 20260905023300 | 64 | 318 | 4.3 | 7.0 | 0.00 | 0.00 | 0.00 | 68 | 1017.8 |
| 20260905022754 | 64 | 300 | 6.1 | 10.4 | 0.00 | 0.00 | 0.00 | 68 | 1017.6 |
| 20260905022254 | 64 | 329 | 7.8 | 12.2 | 0.00 | 0.00 | 0.00 | 67 | 1017.5 |
| 20260905021755 | 64 | 342 | 7.8 | 12.2 | 0.00 | 0.00 | 0.00 | 67 | 1017.5 |
| 20260905021256 | 65 | 339 | 7.8 | 12.2 | 0.00 | 0.00 | 0.00 | 67 | 1017.3 |
| 20260905020752 | 65 | 340 | 7.8 | 12.2 | 0.00 | 0.00 | 0.00 | 68 | 1017.4 |
| 20260905015752 | 66 | 22 | 7.8 | 15.6 | 0.00 | 0.00 | 0.00 | 69 | 1017.1 |
| 20260905015253 | 66 | 351 | 8.7 | 15.6 | 0.00 | 0.00 | 0.00 | 69 | 1016.9 |
| 20260905014749 | 67 | 342 | 8.7 | 13.0 | 0.00 | 0.00 | 0.00 | 68 | 1016.9 |
| 20260905014249 | 67 | 0 | 8.7 | 16.5 | 0.00 | 0.00 | 0.00 | 67 | 1016.9 |
| 20260905013739 | 68 | 24 | 10.4 | 19.1 | 0.00 | 0.00 | 0.00 | 66 | 1016.5 |
| 20260905013238 | 69 | 54 | 12.2 | 20.0 | 0.00 | 0.00 | 0.00 | 64 | 1016.5 |
| 20260905012738 | 71 | 15 | 9.6 | 20.0 | 0.00 | 0.00 | 0.00 | 61 | 1016.2 |
| 20260905012241 | 71 | 37 | 3.5 | 7.8 | 0.00 | 0.00 | 0.00 | 60 | 1015.9 |
| 20260905011738 | 71 | 326 | 1.7 | 5.2 | 0.00 | 0.00 | 0.00 | 61 | 1015.6 |
| 20260905011240 | 71 | 291 | 1.7 | 4.3 | 0.00 | 0.00 | 0.00 | 61 | 1015.4 |
| 20260905010738 | 71 | 263 | 2.6 | 4.3 | 0.00 | 0.00 | 0.00 | 60 | 1015.4 |
| 20260905010238 | 71 | 284 | 2.6 | 6.1 | 0.00 | 0.00 | 0.00 | 60 | 1015.4 |
| 20260905005740 | 72 | 290 | 2.6 | 6.1 | 0.00 | 0.00 | 0.00 | 59 | 1015.4 |
| 20260905005240 | 72 | 297 | 2.6 | 6.1 | 0.00 | 0.00 | 0.00 | 59 | 1015.4 |
| 20260905004740 | 72 | 283 | 2.6 | 7.8 | 0.00 | 0.00 | 0.00 | 58 | 1015.2 |
| 20260905004238 | 72 | 268 | 1.7 | 7.8 | 0.00 | 0.00 | 0.00 | 58 | 1015.1 |
| 20260905003738 | 73 | 268 | 2.6 | 5.2 | 0.00 | 0.00 | 0.00 | 58 | 1015.1 |
| 20260905003238 | 73 | 288 | 3.5 | 7.8 | 0.00 | 0.00 | 0.00 | 58 | 1015.0 |
| 20260905002737 | 73 | 257 | 3.5 | 7.8 | 0.00 | 0.00 | 0.00 | 57 | 1014.9 |
| 20260905002238 | 73 | 309 | 2.6 | 7.0 | 0.00 | 0.00 | 0.00 | 57 | 1014.9 |
| 20260905001740 | 73 | 258 | 3.5 | 10.4 | 0.00 | 0.00 | 0.00 | 56 | 1014.8 |
| 20260905001240 | 73 | 259 | 3.5 | 11.3 | 0.00 | 0.00 | 0.00 | 56 | 1014.7 |
| 20260905000736 | 73 | 279 | 4.3 | 11.3 | 0.00 | 0.00 | 0.00 | 56 | 1014.7 |
| 20260905000236 | 73 | 267 | 3.5 | 8.7 | 0.00 | 0.00 | 0.00 | 56 | 1014.7 |
| 20260904235737 | 73 | 239 | 4.3 | 8.7 | 0.00 | 0.00 | 0.00 | 57 | 1014.7 |
| 20260904235234 | 73 | 213 | 4.3 | 9.6 | 0.00 | 0.00 | 0.00 | 57 | 1014.7 |
| 20260904234734 | 72 | 215 | 4.3 | 9.6 | 0.00 | 0.00 | 0.00 | 58 | 1014.5 |
| 20260904234235 | 72 | 211 | 3.5 | 8.7 | 0.00 | 0.00 | 0.00 | 58 | 1014.7 |
| 20260904233736 | 72 | 256 | 4.3 | 8.7 | 0.00 | 0.00 | 0.00 | 59 | 1014.7 |
| 20260904233233 | 71 | 211 | 4.3 | 8.7 | 0.00 | 0.00 | 0.00 | 60 | 1014.5 |
| 20260904232734 | 71 | 221 | 4.3 | 8.7 | 0.00 | 0.00 | 0.00 | 61 | 1014.4 |
| 20260904232232 | 70 | 232 | 4.3 | 7.8 | 0.00 | 0.00 | 0.00 | 63 | 1014.5 |
| 20260904231729 | 69 | 223 | 3.5 | 7.8 | 0.00 | 0.00 | 0.00 | 65 | 1014.5 |
| 20260904231230 | 68 | 246 | 3.5 | 8.7 | 0.00 | 0.00 | 0.00 | 67 | 1014.5 |
| 20260904230730 | 66 | 244 | 4.3 | 8.7 | 0.00 | 0.00 | 0.00 | 69 | 1014.5 |
| 20260904230232 | 65 | 226 | 3.5 | 7.8 | 0.00 | 0.00 | 0.00 | 71 | 1014.4 |
| 20260904225731 | 63 | 238 | 2.6 | 6.1 | 0.00 | 0.00 | 0.00 | 74 | 1014.5 |
| 20260904225231 | 63 | 221 | 1.7 | 6.1 | 0.00 | 0.00 | 0.00 | 77 | 1014.4 |
| 20260904224730 | 62 | 239 | 0.9 | 3.5 | 0.00 | 0.00 | 0.00 | 80 | 1014.4 |
| 20260904224230 | 62 | 236 | 0.9 | 3.5 | 0.00 | 0.00 | 0.00 | 80 | 1014.4 |
| 20260904223724 | 62 | 236 | 1.7 | 3.5 | 0.00 | 0.00 | 0.00 | 79 | 1014.4 |